Location: Yecla
(38.6122°N, 1.1101°W)
Time: 12:17:20
(UTC+02:00)

ISS - Visible Passes

Search period start: 19 May 2019 00:00
Search period end: 29 May 2019 00:00
Orbit: 408 x 410 km, 51.6° (Epoch: 19 May)

Date Brightness Start Highest point End Pass type
(mag) Time Alt. Az. Time Alt. Az. Time Alt. Az.
19 May -0.5 00:28:12 10° NW 00:30:07 14° NNW 00:32:02 10° NNE visible
19 May -0.7 03:43:27 10° NNW 03:45:35 16° NNE 03:47:42 10° ENE visible
19 May -3.8 05:19:15 10° NW 05:22:34 86° NNE 05:25:52 10° SE visible
19 May -3.8 21:58:56 10° SW 22:02:10 58° SE 22:05:25 10° ENE visible
19 May -1.0 23:36:28 10° WNW 23:38:58 20° NNW 23:41:29 10° NNE visible
20 May -0.3 02:53:00 10° N 02:54:24 12° NNE 02:55:48 10° NE visible
20 May -2.7 04:28:26 10° NW 04:31:38 45° NE 04:34:49 10° ESE visible
20 May -2.3 06:05:42 10° W 06:07:57 17° SW 06:10:11 10° S visible
20 May -1.7 22:44:57 10° W 22:47:53 29° NNW 22:50:51 10° NNE visible
21 May -0.2 00:24:50 10° NNW 00:25:19 10° N 00:25:47 10° N visible
21 May -1.8 05:19:19 16° SSE 05:19:19 16° SSE 05:20:11 10° SSE visible
21 May -2.8 21:53:39 10° WSW 21:56:52 50° NW 22:00:06 10° NE visible
21 May -0.5 23:32:31 10° NW 23:34:04 13° NNW 23:35:36 10° N visible
22 May -0.7 22:40:38 10° WNW 22:42:51 17° NNW 22:45:04 10° NNE visible
23 May -0.3 01:56:31 10° NNW 01:57:10 12° N 01:57:10 12° N visible
23 May -1.2 21:48:57 10° W 21:51:42 24° NNW 21:54:27 10° NNE visible
24 May -0.5 01:06:07 10° N 01:07:03 11° NNE 01:07:39 11° NNE visible
24 May -0.5 22:36:49 10° NNW 22:37:55 11° NNW 22:39:00 10° N visible
25 May -0.4 01:50:37 10° NNW 01:50:53 11° NNW 01:50:53 11° NNW visible
25 May -0.7 21:44:45 10° NW 21:46:38 14° NNW 21:48:32 10° NNE visible
26 May -0.8 00:59:58 10° NNW 01:01:28 15° N 01:01:28 15° N visible
27 May -0.8 00:09:25 10° N 00:10:50 12° NNE 00:12:04 10° NE visible
28 May -1.0 00:54:03 10° NNW 00:55:24 19° NNW 00:55:24 19° NNW visible
